Flag for Azerbaijan Weather past 2 weeks in Sumqayit, Azerbaijan

Now
72 °F

Clear.


Feels Like: 77 °F
Forecast: 67 / 78 °F
Wind: 10 mph from Northeast

Location: Baku / Bine Airport

Current Time: Sep 19, 2014 at 1:30:20 AM

Latest Report: Sep 19, 2014 at 1:00 AM


Visibility: 10 mi

Pressure: 30.15 "Hg

Humidity: 53%

Dew point: 54 °F

Location of SumqayitLocation

Historic Weather in Sumqayit — Graph

°F

Sumqayit temperature yesterday

Maximum temperature yesterday: 73 °F (at 4:30 AM)
Minimum temperature yesterday: 66 °F (at 12:30 AM)
Average temperature yesterday: 71 °F

Past Weeks' High & Low Weather Summary

 TemperatureHumidityPressure
High93 °F (Sep 9, 2:30 PM)100% (Sep 4, 5:30 AM)30.15 "Hg (Sep 4, 5:30 AM)
Low61 °F (Sep 7, 5:30 AM)20% (Sep 8, 4:30 PM)29.71 "Hg (Sep 5, 12:30 AM)
Average77 °F62%29.87 "Hg
* Reported Midnight between Sep 3 and Sep 4 — Sep 19 12:30 AM, Sumqayit, Weather by CustomWeather, © 2014

Note: Actual official high and low records may vary slightly from our data, if they occured in-between our weather recording intervals... More about our weather records

Advertising

Sumqayit weather history for previous 24 hours

 ConditionsComfort  
Time TempWeatherWind HumidityBarometerVisibility
12:30 AM
Sep 19
70 °FClear.10 mph57%30.15 "Hg10 mi
12:00 AM72 °FClear.12 mph53%30.15 "Hg10 mi
11:30 PM
Sep 18
72 °FClear.10 mph53%30.15 "Hg10 mi
11:00 PM72 °FClear.12 mph53%30.15 "Hg10 mi
10:30 PM70 °FClear.13 mph57%30.15 "Hg10 mi
10:00 PM70 °FClear.13 mph57%30.15 "Hg10 mi
9:30 PM70 °FClear.12 mph57%30.15 "Hg10 mi
9:00 PM70 °FClear.14 mph57%30.15 "Hg10 mi
8:30 PM70 °FSunny.14 mph60%30.12 "Hg10 mi
8:00 PM70 °FSunny.13 mph57%30.12 "Hg10 mi
7:30 PM70 °FSunny.16 mph57%30.12 "Hg10 mi
7:00 PM72 °FSunny.15 mph57%30.12 "Hg10 mi
6:30 PM72 °FSunny.15 mph57%30.12 "Hg10 mi
6:00 PM72 °FSunny.15 mph57%30.12 "Hg10 mi
5:30 PM73 °FSunny.13 mph53%30.12 "Hg10 mi
4:30 PM72 °FSunny.14 mph57%30.12 "Hg10 mi
4:00 PM73 °FPartly sunny.16 mph53%30.12 "HgN/A
3:30 PM73 °FPartly sunny.16 mph53%30.12 "HgN/A
3:00 PM73 °FPartly sunny.16 mph53%30.12 "HgN/A
2:30 PM73 °FPartly sunny.16 mph53%30.12 "HgN/A
2:00 PM72 °FOvercast.16 mph57%30.12 "HgN/A
1:30 PM72 °FMore clouds than sun.20 mph57%30.12 "HgN/A
1:00 PM73 °FMore clouds than sun.16 mph53%30.12 "HgN/A
12:30 PM72 °FMore clouds than sun.15 mph65%30.15 "HgN/A
12:00 PM72 °FSprinkles. More clouds than sun.12 mph61%30.15 "HgN/A
11:30 AM72 °FSprinkles. More clouds than sun.12 mph61%30.15 "HgN/A
11:00 AM72 °FOvercast.13 mph61%30.12 "HgN/A
10:30 AM72 °FOvercast.14 mph61%30.12 "HgN/A
10:00 AM72 °FSprinkles. Overcast.14 mph65%30.09 "HgN/A
9:30 AM72 °FOvercast.13 mph61%30.09 "HgN/A
9:00 AM72 °FOvercast.10 mph61%30.09 "HgN/A
8:30 AM72 °FOvercast.10 mph57%30.09 "HgN/A
8:00 AM72 °FOvercast.12 mph53%30.07 "HgN/A
7:30 AM72 °FPassing clouds.13 mph61%30.07 "HgN/A
7:00 AM72 °FPassing clouds.9 mph61%30.07 "HgN/A
6:30 AM72 °FClear.12 mph61%30.07 "Hg10 mi
6:00 AM72 °FClear.13 mph61%30.04 "Hg10 mi
5:30 AM72 °FPassing clouds.13 mph65%30.04 "HgN/A
5:00 AM73 °FPassing clouds.9 mph61%30.04 "HgN/A
4:30 AM73 °FClear.12 mph61%30.04 "Hg10 mi
4:00 AM72 °FClear.9 mph61%30.04 "Hg10 mi
3:30 AM72 °FClear.10 mph61%30.04 "Hg10 mi
3:00 AM72 °FClear.12 mph65%30.04 "Hg10 mi
2:30 AM72 °FClear.10 mph69%30.04 "Hg10 mi
2:00 AM72 °FClear.10 mph65%30.04 "Hg10 mi
1:30 AM70 °FClear.9 mph64%30.04 "Hg10 mi
1:00 AM70 °FClear.10 mph60%30.04 "Hg10 mi
Weather by CustomWeather, © 2014

See weather overviewHow to use our weather pages